Regional Weather Roundup
Issued by NWS

Home | Current Version | Previous Version | Text Only | Print | Product List | Glossary On
Versions: 1 2 3 4 5 6 7 8 9 10 11 12 13 14 15 16 17 18 19 20 21 22 23 24 25 26 27 28 29 30 31 32 33 34 35 36 37 38 39 40 41 42 43 44 45 46 47 48 49 50
000
ASCA44 KEWX 280320
RWRMX

LATIN AMERICA AND CARIBBEAN REGIONAL WEATHER ROUNDUP
NATIONAL WEATHER SERVICE AUSTIN/SAN ANTONIO TX
1000 PM CDT WED JUL 27 2016

NOTE: "FAIR" INDICATED FEW OR NO CLOUDS BELOW 12,000 FEET WITH NO
SIGNIFICANT WEATHER AND/OR OBSTRUCTIONS TO VISIBILITY.

BAJA CALIFORNIA

CITY           SKY/WX    TMP DP  RH WIND       PRES   REMARKS
LA PAZ         PTCLDY    86  70  58 SW12      29.85  HX  90
MEXICALI       PTCLDY   102  61  25 SE7       29.67  HX 103
S.J. DEL CABO  PTCLDY    86  68  54 SE6       29.87R
TIJUANA        PTCLDY    75  61  60 W9        29.92R

NORTHWESTERN MEXICO

CITY           SKY/WX    TMP DP  RH WIND       PRES   REMARKS
CULIACAN       CLOUDY    79  77  94 NE6       29.89
DURANGO        LGT RAIN  64  59  82 W2        30.24
GUAYMAS          N/A    N/A N/A N/A MISG        N/A
HERMOSILLO     MOCLDY    99  70  39 W9        29.78  HX 105
CD. JUAREZ     MOCLDY    84  64  51 CALM      29.97
LOS MOCHIS     CLOUDY    88  72  58 S9        29.83R HX  94

NORTHEASTERN MEXICO

CITY           SKY/WX    TMP DP  RH WIND       PRES   REMARKS
CHIHUAHUA      CLOUDY    79  59  50 W3        30.07
MONCLOVA         N/A    N/A N/A N/A MISG        N/A
MONTERREY      CLOUDY    73  68  83 CALM      29.93R
REYNOSA          N/A    N/A N/A N/A MISG        N/A
SALTILLO       PTCLDY    66  63  88 N6        30.18R
TORREON        MOCLDY    82  63  51 NE5       30.02R
CD. VICTORIA     N/A    N/A N/A N/A MISG        N/A

WESTERN MEXICO

CITY           SKY/WX    TMP DP  RH WIND       PRES   REMARKS
AGUASCALIENTES MOCLDY    70  55  60 SW6       30.19R
COLIMA         DRIZZLE   75  70  83 CALM      30.04R
DEL BAJIO      CLOUDY    63  57  82 W6        30.28R
GUADALAJARA    MOCLDY    68  63  83 NW3       30.15
MAZATLAN       CLOUDY    79  77  94 NE3       29.86R
P. VALLARTA    MOCLDY    79  77  94 NE5       29.89R
URUAPAN          N/A    N/A N/A N/A MISG        N/A
ZACATECAS      MOCLDY    63  54  72 NW14      30.29R

CENTRAL MEXICO

CITY           SKY/WX    TMP DP  RH WIND       PRES   REMARKS
CUERNAVACA       N/A    N/A N/A N/A MISG        N/A
MEXICO CITY    CLOUDY    63  54  72 S6        30.32R
MORELIA        CLOUDY    59  59 100 SW2       30.22
POZA RICA        N/A    N/A N/A N/A MISG        N/A
PUEBLA         MOCLDY    61  48  63 SW8       30.29S
QUERETARO      MOCLDY    61  59  94 CALM      30.28R
S. LUIS POTOSI MOCLDY    66  54  63 E7        30.21R
TAMPICO        MOCLDY    81  75  83 CALM      29.94R
TOLUCA         CLOUDY    54  50  87 CALM      30.39R

SOUTHERN MEXICO

CITY           SKY/WX    TMP DP  RH WIND       PRES   REMARKS
ACAPULCO       CLOUDY    84  75  74 W3        29.90R HX  92
B. DE HUATULCO   N/A    N/A N/A N/A MISG        N/A
P. ESCONDIDO     N/A    N/A N/A N/A MISG        N/A
VERACRUZ       PTCLDY    82  75  78 E2        29.93R
ZIHUATANEJO      N/A    N/A N/A N/A MISG        N/A

YUCATAN PENINSULA

CITY           SKY/WX    TMP DP  RH WIND       PRES   REMARKS
CAMPECHE       MOCLDY    79  75  89 NE12      29.89R
CANCUN         PTCLDY    82  81  94 SE3       29.97R HX  95
CHETUMAL       PTCLDY    84  75  74 E12       29.94  HX  92
CD. DEL CARMEN   N/A    N/A N/A N/A MISG        N/A
COZUMEL        PTCLDY    77  75  94 CALM      29.97R
MERIDA         PTCLDY    81  75  83 E5        29.94R
MINATITLAN       N/A    N/A N/A N/A MISG        N/A
TAPACHULA      CLOUDY    79  77  94 CALM      29.85R
TUX. GUTIERREZ MOCLDY    79  70  73 NW6       29.90R
VILLAHERMOSA   PTCLDY    82  77  83 N13       29.91R HX  91

CENTRAL AMERICA

CITY           SKY/WX    TMP DP  RH WIND       PRES   REMARKS
MANAGUA        PTCLDY    81  73  78 E5        29.83S

CARIBBEAN

CITY           SKY/WX    TMP DP  RH WIND       PRES   REMARKS
ARUBA          PTCLDY    84  77  79 E22       29.86S HX  94
CURACAO        PTCLDY    82  77  83 E17       29.92S HX  91
KINGSTON       PTCLDY    86  73  66 E15       29.94R HX  93
NASSAU         PTCLDY    86  77  74 E7        30.07S HX  97
SAN JUAN       PTCLDY    82  81  94 E6        30.04S HX  95
SANTO DOMINGO  PTCLDY    77  73  88 CALM      30.00S
ST. CROIX      CLEAR     81  75  83 NE5       30.04S
ST. MAARTEN    PTCLDY    82  77  83 E6        30.03S HX  91

$$




USA.gov is the U.S. government's official web portal to all federal, state and local government web resources and services.